IRIDIUM 170

Last updated on Sun Jun 21 2026 00:03:14 GMT+0000 (Coordinated Universal Time)

1 43930U 19002J 26171.42752802 .00000570 00000+0 86449-4 0 9994 2 43930 86.6092 352.1879 0002360 89.9560 270.1927 14.72271038399739
UTC large
Height (km)
Speed (km/s)
/
Latitude / Longitude
Inclination (degrees)
Orbital Period (minutes)
Azimuth
Elevation
Range (km)
Doppler Factor

Next 0 passes for location: London (51.5072 / 0.1276)

No passes found over London.
IRIDIUM 170